Regional Weather Roundup
Issued by NWS Lake Charles, LA

Home | Current Version | Previous Version | Text Only | Print | Product List | Glossary On
Versions: 1 2 3 4 5 6 7 8 9 10 11 12 13 14 15 16 17 18 19 20 21 22 23 24 25 26 27 28 29 30 31 32 33 34 35 36 37 38 39 40 41 42 43 44 45 46 47 48 49 50
342
ASUS44 KLCH 260910
RWRLCH
REGIONAL WEATHER ROUNDUP
NATIONAL WEATHER SERVICE LAKE CHARLES LA
400 AM CDT SUN MAR 26 2017

Note: "fair" indicates few or no clouds below 12,000 feet with no
significant weather and/or obstructions to visibility.


ACROSS SOUTHEAST TEXAS

CITY           SKY/WX    TMP DP  RH WIND       PRES   REMARKS
BEAUMONT       FOG       66  65  96 CALM      29.92S VSB 1/4
BEAUMONT CITY  FOG      N/A N/A N/A SE3       29.93S VSB 1/4
ORANGE         FOG       64  63  99 CALM      29.95S VSB 1/4
JASPER         FOG       54  53  98 CALM      29.96S VSB 1/2
$$

ACROSS CENTRAL LOUISIANA

CITY           SKY/WX    TMP DP  RH WIND       PRES   REMARKS
LEESVILLE      FOG       63  63 100 W3        29.93F VSB 3/8
FULLERTON      FOG       64  63  96 CALM      29.92F VSB 1
ALEXANDRIA INT CLOUDY    65  64  97 SW12      29.92F FOG
ESLER FIELD    CLOUDY    66  65  96 SW8       29.94F
DERIDDER       FAIR      63  62  96 CALM      29.95F FOG
OAKDALE        FOG       67  66  97 CALM      29.94F VSB 3/4
OPELOUSAS      CLOUDY    67  65  96 MISG      29.95F
$$

ACROSS SOUTHWEST AND SOUTH CENTRAL LOUISIANA

CITY           SKY/WX    TMP DP  RH WIND       PRES   REMARKS
SULPHUR        CLOUDY    68  68 100 CALM      29.94F FOG
LAKE CHARLES   CLOUDY    66  65  96 SE3       29.94S FOG
CHENNAULT INT  CLOUDY    66  66  99 CALM      29.94F FOG
CAMERON PHI    PTSUNNY   70  70 100 SW7       29.93S
DEQUINCY       CLOUDY    63  63  99 CALM      29.94F FOG
JENNINGS       CLOUDY    67  67  99 CALM      29.95S FOG
LAFAYETTE      MOCLDY    67  65  93 CALM      29.95F FOG
NEW IBERIA     FOG       64  62  93 CALM      29.96S VSB 1/2
ABBEVILLE      FOG       61  61 100 CALM      29.95F VSB 1/4
PATTERSON      CLOUDY    67  67 100 S5        29.96F FOG
SALT POINT       N/A     68  67  96 CALM      29.95S
$$

SELECTED SITES ACROSS THE REGION

CITY           SKY/WX    TMP DP  RH WIND       PRES   REMARKS
HOUSTON BUSH   CLOUDY    69  66  90 S7        29.90F
HOUSTON HOBBY  MOCLDY    68  67  96 S5        29.90F
GALVESTON      MOCLDY    72  70  93 S10       29.92F
COLLEGE STAT   FOG       61  60  97 SE5       29.90S VSB 3/4
CONROE         FOG       54  54 100 CALM      29.91F VSB 1/4
HUNTSVILLE     CLEAR     54  49  83 CALM      29.90F
LUFKIN         CLEAR     49  47  93 CALM      29.92F
SHREVEPORT     CLEAR     51  48  89 CALM      29.92F
MONROE         CLEAR     55  53  93 CALM      29.93F
NATCHEZ MS     CLOUDY    63  57  82 S5        29.95S
BATON ROUGE    FOG       66  66 100 S7        29.96S VSB 1
N.O. INTL ARPT CLOUDY    69  66  90 S3        29.97S
SLIDELL        CLOUDY    62  60  93 CALM      29.97F
$$

MARINE REPORTS

STATION/POSITION TIME  SKY/WX   TEMP    WIND        PRES    VSBY
                                AIR SEA DIR/SP/G
                 (UTC)          (F)     (DEG/KT/KT) (MB)    (MI)
BUOY 30 S HIGH I 0850            71 71  210/ 12/ 16 1012.9F
WVE H/P(F/S)=  3/ 8

SEA RIM ST PARK  0900            70     200/  5/  6 1013.8S
PORT ARTHUR      0842               71  190/  1/  2 1013.5F
SABINE PASS N    0842            68 73  190/  3/  4 1014.8F
TEXAS POINT      NOT AVBL
CALCASIEU PASS   0842            71 72  240/  9/ 12   N/A
LK CHARLES BEACH 0842            69 71              1014.2F
MARSH ISLAND     0800            72                   N/A
FRESH WATER LOCK 0842            71 73  200/  7/  9 1013.9F
AMERADA PASS     0842            69 60  200/  3/  6 1014.3S
$$




USA.gov is the U.S. government's official web portal to all federal, state and local government web resources and services.